Tiempo cada hora Aabenraa

Hoy, 21 Octubre, Miércoles

Tiempo Temperatura Precipitaciones Viento Presión Humedad
00:00 +12°C° 0 mm 5 mps 750 mmHg 95%
01:00 +12°C° 0 mm 4 mps 750 mmHg 93%
02:00 +12°C° 0 mm 4 mps 749 mmHg 95%
03:00 +12°C° 0 mm 4 mps 749 mmHg 96%
04:00 +12°C° 0 mm 3 mps 749 mmHg 97%
05:00 +12°C° 0 mm 4 mps 749 mmHg 97%
06:00 +12°C° 0 mm 4 mps 749 mmHg 97%
07:00 +12°C° 0 mm 4 mps 749 mmHg 98%
08:00 +12°C° 0 mm 4 mps 748 mmHg 96%
09:00 +13°C° 0 mm 4 mps 748 mmHg 95%
10:00 +13°C° 0 mm 4 mps 748 mmHg 94%
11:00 +13°C° 1 mm 5 mps 748 mmHg 94%
12:00 +12°C° 1 mm 5 mps 748 mmHg 95%
13:00 +12°C° 1 mm 5 mps 747 mmHg 95%
14:00 +11°C° 0.6 mm 6 mps 746 mmHg 94%
15:00 +11°C° 0.6 mm 7 mps 745 mmHg 93%
16:00 +11°C° 0.6 mm 8 mps 744 mmHg 92%
17:00 +12°C° 0.3 mm 8 mps 744 mmHg 88%
18:00 +13°C° 0.3 mm 9 mps 743 mmHg 85%
19:00 +13°C° 0.3 mm 10 mps 743 mmHg 82%
20:00 +14°C° 0.1 mm 11 mps 742 mmHg 83%
21:00 +14°C° 0.1 mm 12 mps 742 mmHg 84%
22:00 +14°C° 0.1 mm 13 mps 741 mmHg 86%
23:00 +14°C° 0.2 mm 13 mps 742 mmHg 86%

Mañana, 22 Octubre, Jueves

Tiempo Temperatura Precipitaciones Viento Presión Humedad
00:00 +13°C° 0.2 mm 13 mps 743 mmHg 86%
01:00 +13°C° 0.2 mm 12 mps 744 mmHg 86%
02:00 +13°C° 0 mm 11 mps 745 mmHg 87%
03:00 +13°C° 0 mm 10 mps 746 mmHg 87%
04:00 +12°C° 0 mm 9 mps 747 mmHg 88%
05:00 +12°C° 0 mm 8 mps 747 mmHg 89%
06:00 +12°C° 0 mm 8 mps 748 mmHg 90%
07:00 +12°C° 0 mm 7 mps 749 mmHg 90%
08:00 +12°C° 0 mm 8 mps 749 mmHg 87%
09:00 +13°C° 0 mm 9 mps 749 mmHg 83%
10:00 +13°C° 0 mm 9 mps 749 mmHg 79%
11:00 +13°C° 0.1 mm 10 mps 749 mmHg 77%
12:00 +13°C° 0.1 mm 10 mps 749 mmHg 75%
13:00 +14°C° 0.1 mm 11 mps 750 mmHg 73%
14:00 +13°C° 0 mm 10 mps 750 mmHg 75%
15:00 +13°C° 0 mm 9 mps 750 mmHg 76%
16:00 +13°C° 0 mm 8 mps 750 mmHg 78%
17:00 +12°C° 0 mm 8 mps 749 mmHg 80%
18:00 +12°C° 0 mm 7 mps 749 mmHg 83%
19:00 +11°C° 0 mm 7 mps 749 mmHg 85%
20:00 +11°C° 0 mm 7 mps 749 mmHg 85%
21:00 +11°C° 0 mm 7 mps 749 mmHg 86%
22:00 +11°C° 0 mm 7 mps 749 mmHg 86%
23:00 +10°C° 0 mm 7 mps 749 mmHg 84%

Pasado mañana, 23 Octubre, Viernes

Tiempo Temperatura Precipitaciones Viento Presión Humedad
00:00 +10°C° 0 mm 7 mps 749 mmHg 82%
01:00 +10°C° 0 mm 7 mps 749 mmHg 80%
02:00 +10°C° 0 mm 7 mps 749 mmHg 81%
03:00 +10°C° 0 mm 6 mps 749 mmHg 81%
04:00 +9°C° 0 mm 6 mps 749 mmHg 82%
05:00 +9°C° 0 mm 5 mps 749 mmHg 84%
06:00 +9°C° 0 mm 5 mps 749 mmHg 85%
07:00 +10°C° 0 mm 4 mps 749 mmHg 87%
08:00 +11°C° 0.1 mm 4 mps 749 mmHg 85%
09:00 +12°C° 0.1 mm 5 mps 749 mmHg 82%
10:00 +12°C° 0.1 mm 5 mps 749 mmHg 80%
11:00 +13°C° 0.4 mm 5 mps 749 mmHg 81%
12:00 +13°C° 0.4 mm 6 mps 749 mmHg 82%
13:00 +13°C° 0.4 mm 6 mps 749 mmHg 83%
14:00 +13°C° 0.4 mm 6 mps 749 mmHg 84%
15:00 +13°C° 0.4 mm 6 mps 749 mmHg 85%
16:00 +13°C° 0.4 mm 6 mps 748 mmHg 86%
17:00 +12°C° 0.9 mm 5 mps 748 mmHg 88%
18:00 +12°C° 0.9 mm 5 mps 748 mmHg 90%
19:00 +11°C° 0.9 mm 4 mps 748 mmHg 92%
20:00 +10°C° 0.2 mm 5 mps 748 mmHg 89%
21:00 +10°C° 0.2 mm 5 mps 748 mmHg 87%
22:00 +9°C° 0.2 mm 6 mps 748 mmHg 85%
23:00 +9°C° 0.5 mm 6 mps 748 mmHg 85%

24 Octubre, Sábado

Tiempo Temperatura Precipitaciones Viento Presión Humedad
00:00 +9°C° 0.5 mm 6 mps 748 mmHg 86%
01:00 +9°C° 0.5 mm 7 mps 748 mmHg 87%
02:00 +9°C° 0.2 mm 7 mps 749 mmHg 84%
03:00 +8°C° 0.2 mm 7 mps 749 mmHg 82%
04:00 +8°C° 0.2 mm 6 mps 749 mmHg 79%
05:00 +7°C° 0 mm 6 mps 750 mmHg 79%
06:00 +7°C° 0 mm 6 mps 750 mmHg 79%
07:00 +7°C° 0 mm 6 mps 750 mmHg 79%
08:00 +8°C° 0 mm 6 mps 751 mmHg 77%
09:00 +9°C° 0 mm 6 mps 752 mmHg 75%
10:00 +9°C° 0 mm 6 mps 752 mmHg 72%
11:00 +10°C° 0.1 mm 6 mps 752 mmHg 70%
12:00 +10°C° 0.1 mm 7 mps 753 mmHg 69%
13:00 +10°C° 0.1 mm 7 mps 753 mmHg 67%
14:00 +10°C° 0.1 mm 7 mps 753 mmHg 70%
15:00 +10°C° 0.1 mm 6 mps 753 mmHg 72%
16:00 +9°C° 0.1 mm 6 mps 752 mmHg 74%
17:00 +9°C° 0 mm 6 mps 752 mmHg 75%
18:00 +9°C° 0 mm 6 mps 752 mmHg 76%
19:00 +9°C° 0 mm 7 mps 752 mmHg 77%
20:00 +9°C° 0 mm 6 mps 752 mmHg 78%
21:00 +8°C° 0 mm 6 mps 752 mmHg 80%
22:00 +8°C° 0 mm 6 mps 752 mmHg 81%
23:00 +8°C° 0 mm 6 mps 751 mmHg 81%

25 Octubre, Domingo

Tiempo Temperatura Precipitaciones Viento Presión Humedad
00:00 +9°C° 0 mm 7 mps 750 mmHg 81%
01:00 +9°C° 0 mm 7 mps 750 mmHg 81%
02:00 +9°C° 0 mm 7 mps 749 mmHg 81%
03:00 +10°C° 0 mm 7 mps 749 mmHg 81%
04:00 +11°C° 0 mm 8 mps 748 mmHg 81%
05:00 +11°C° 0 mm 8 mps 748 mmHg 81%
06:00 +11°C° 0 mm 8 mps 747 mmHg 82%
07:00 +12°C° 0 mm 8 mps 747 mmHg 82%
08:00 +12°C° 0 mm 9 mps 747 mmHg 81%
09:00 +12°C° 0 mm 9 mps 746 mmHg 80%
10:00 +12°C° 0 mm 9 mps 746 mmHg 79%
11:00 +12°C° 0 mm 9 mps 746 mmHg 79%
12:00 +12°C° 0 mm 8 mps 746 mmHg 79%
13:00 +12°C° 0 mm 8 mps 745 mmHg 78%
14:00 +12°C° 0.2 mm 8 mps 745 mmHg 79%
15:00 +12°C° 0.2 mm 8 mps 745 mmHg 80%
16:00 +12°C° 0.2 mm 8 mps 744 mmHg 81%
17:00 +11°C° 0.4 mm 8 mps 744 mmHg 83%
18:00 +11°C° 0.4 mm 8 mps 744 mmHg 85%
19:00 +11°C° 0.4 mm 8 mps 744 mmHg 86%
20:00 +10°C° 0.3 mm 7 mps 745 mmHg 86%
21:00 +9°C° 0.3 mm 5 mps 745 mmHg 85%
22:00 +8°C° 0.3 mm 4 mps 746 mmHg 84%
23:00 +8°C° 0 mm 5 mps 746 mmHg 85%

26 Octubre, Lunes

Tiempo Temperatura Precipitaciones Viento Presión Humedad
00:00 +8°C° 0 mm 6 mps 746 mmHg 86%
01:00 +8°C° 0 mm 6 mps 746 mmHg 86%
02:00 +8°C° 0 mm 6 mps 746 mmHg 86%
03:00 +8°C° 0 mm 6 mps 747 mmHg 86%
04:00 +8°C° 0 mm 6 mps 747 mmHg 86%
05:00 +8°C° 0 mm 6 mps 747 mmHg 87%
06:00 +8°C° 0 mm 6 mps 747 mmHg 87%
07:00 +8°C° 0 mm 6 mps 747 mmHg 88%
08:00 +8°C° 0 mm 6 mps 747 mmHg 85%
09:00 +9°C° 0 mm 6 mps 748 mmHg 83%
10:00 +9°C° 0 mm 7 mps 748 mmHg 81%
11:00 +9°C° 0 mm 7 mps 748 mmHg 79%
12:00 +9°C° 0 mm 6 mps 748 mmHg 78%
13:00 +9°C° 0 mm 6 mps 748 mmHg 77%
14:00 +9°C° 0 mm 6 mps 748 mmHg 78%
15:00 +9°C° 0 mm 5 mps 748 mmHg 78%
16:00 +9°C° 0 mm 5 mps 748 mmHg 79%
17:00 +8°C° 0 mm 5 mps 749 mmHg 82%
18:00 +8°C° 0 mm 5 mps 749 mmHg 85%
19:00 +7°C° 0 mm 5 mps 749 mmHg 88%
20:00 +7°C° 0 mm 4 mps 750 mmHg 89%
21:00 +7°C° 0 mm 4 mps 750 mmHg 90%
22:00 +7°C° 0 mm 3 mps 750 mmHg 91%
23:00 +7°C° 0 mm 3 mps 750 mmHg 90%

27 Octubre, Martes

Tiempo Temperatura Precipitaciones Viento Presión Humedad
00:00 +7°C° 0 mm 3 mps 751 mmHg 90%
01:00 +7°C° 0 mm 3 mps 751 mmHg 89%
02:00 +7°C° 0 mm 3 mps 751 mmHg 89%
03:00 +7°C° 0 mm 3 mps 751 mmHg 89%
04:00 +5°C° 0 mm 3 mps 751 mmHg 89%
05:00 +5°C° 0 mm 3 mps 752 mmHg 90%
06:00 +5°C° 0 mm 4 mps 752 mmHg 91%
07:00 +5°C° 0 mm 4 mps 752 mmHg 92%
08:00 +6°C° 0 mm 4 mps 753 mmHg 89%
09:00 +7°C° 0 mm 5 mps 753 mmHg 85%
10:00 +8°C° 0 mm 5 mps 753 mmHg 82%
11:00 +9°C° 0 mm 5 mps 753 mmHg 79%
12:00 +10°C° 0 mm 5 mps 754 mmHg 76%
13:00 +10°C° 0 mm 6 mps 754 mmHg 73%
14:00 +10°C° 0 mm 5 mps 754 mmHg 75%
15:00 +9°C° 0 mm 5 mps 754 mmHg 78%
16:00 +8°C° 0 mm 4 mps 754 mmHg 80%
17:00 +8°C° 0 mm 5 mps 754 mmHg 82%
18:00 +8°C° 0 mm 5 mps 754 mmHg 83%
19:00 +7°C° 0 mm 5 mps 754 mmHg 85%
20:00 +7°C° 0 mm 5 mps 754 mmHg 85%
21:00 +7°C° 0 mm 6 mps 755 mmHg 85%
22:00 +7°C° 0 mm 6 mps 755 mmHg 85%
23:00 +7°C° 0 mm 6 mps 755 mmHg 84%
Mostrar más

Necesitamos Su Consentimiento

Meteoprog y nuestros Proveedores de Servicios pueden almacenar y acceder a sus datos personales como cookies, identificadores de dispositivo u otras tecnologías similares de su dispositivo y procesar dichos datos para personalizar contenido y anuncios, además de ofrecer funciones de redes sociales y analizar el tráfico.

  • Almacenar y/o acceder a información en su dispositivo

    Se puede almacenar o acceder a cookies, identificadores de dispositivo u otra información de su dispositivo para los fines anteriormente indicados.

  • Anuncios y contenido personalizados, medición de anuncios y contenido, percepciones del público, y desarrollo de productos

    Los anuncios y el contenido pueden personalizarse en base a su perfil. Se pueden añadir más datos para personalizar mejor los anuncios y contenidos. Se puede medir el rendimiento de los anuncios y contenidos. Se puede obtener la percepción sobre el público que ha visto los anuncios y contenidos. Dichos datos pueden usarse para desarrollar o mejorar la experiencia del usuario, sistemas y software.

Al hacer clic en ‘Estoy De Acuerdo’ usted permitirá el uso de las cookies, identificadores de dispositivo, balizas web u otras tecnologías similares indicadas. Su configuración puede cambiarse desde el navegador de su dispositivo.

Para ciertos fines, los intereses legítimos pueden ser considerados por encima del consentimiento. Puede leer más sobre ello en nuestra Política de Privacidad y Cookies.